Weather reports worldwide

Advertisment
Falsterbo A, Sweden (2615): temperature & dewpoint: 01.07.2020 21:00:00 - 07.07.2020 21:00:00 (CEST)Falsterbo A, Sweden (2615): wind speed & gusts: 01.07.2020 21:00:00 - 07.07.2020 21:00:00 (CEST)Falsterbo A, Sweden (2615): wind direction: 01.07.2020 21:00:00 - 07.07.2020 21:00:00 (CEST)Falsterbo A, Sweden (2615): reduced air pressure: 01.07.2020 21:00:00 - 07.07.2020 21:00:00 (CEST)Falsterbo A, Sweden (2615): visibility: 01.07.2020 21:00:00 - 07.07.2020 21:00:00 (CEST)Falsterbo A, Sweden (2615): precipitation: 01.07.2020 21:00:00 - 07.07.2020 21:00:00 (CEST)
Date & Time tt [°C] td [°C] ff [km/h] ff [kn] fx [km/h] fx [kn] dd ppp [hPa] vv [km] rr [mm]
07.07.2020 21:00:00 14,1 9,7 34 19 46 25 WSW 1011,3 41 0,0
07.07.2020 20:00:00 13,7 9,9 36 20 45 24 WSW 1011,6 43 0,1
07.07.2020 19:00:00 13,7 10,7 34 18 61 33 W 1012,1 32 0,0
07.07.2020 18:00:00 15,2 10,2 47 26 58 31 WSW 1012,0 44 0,0
07.07.2020 17:00:00 13,9 10,3 32 18 59 32 W 1013,0 46 0,9
07.07.2020 16:00:00 13,9 10,9 48 26 64 35 W 1013,4 8 0,0
07.07.2020 15:00:00 16,4 9,3 40 22 55 30 WSW 1013,0 39 0,0
07.07.2020 14:00:00 17,5 8,1 38 20 49 27 WSW 1013,4 36 0,0
07.07.2020 13:00:00 16,4 9,1 31 17 47 26 WSW 1013,7 37 0,0
07.07.2020 12:00:00 16,1 9,3 30 16 44 24 W 1013,9 38 0,0
07.07.2020 11:00:00 16,2 9,1 34 18 44 24 W 1014,0 40 0,0
07.07.2020 10:00:00 14,9 9,0 35 19 47 26 W 1014,1 27 0,0
07.07.2020 09:00:00 14,6 9,0 35 19 50 27 W 1013,9 28 0,0
07.07.2020 08:00:00 13,7 8,7 42 23 57 31 WNW 1013,4 24 0,0
07.07.2020 07:00:00 13,6 9,1 48 26 60 32 WNW 1013,0 22 0,0
07.07.2020 06:00:00 13,4 8,2 47 25 61 33 WNW 1012,4 23 0,0
07.07.2020 05:00:00 13,3 8,2 48 26 61 33 WNW 1011,8 24 0,0
07.07.2020 04:00:00 13,3 8,2 51 27 68 37 WNW 1011,4 23 0,0
07.07.2020 03:00:00 13,3 7,5 55 30 72 39 WNW 1010,8 24 0,0
07.07.2020 02:00:00 13,6 9,3 50 27 70 38 WNW 1010,3 24 0,0
07.07.2020 01:00:00 14,0 9,4 56 30 72 39 WNW 1010,1 27 0,0
07.07.2020 00:00:00 14,3 9,9 54 29 67 36 W 1009,3 25 0,0
06.07.2020 23:00:00 14,3 9,1 49 26 69 38 W 1008,7 20 0,0
06.07.2020 22:00:00 14,9 8,9 49 26 76 41 W 1008,0 20 0,0
06.07.2020 21:00:00 15,3 10,3 55 30 72 39 W 1007,2 22 0,0
06.07.2020 20:00:00 15,3 11,3 44 24 69 37 W 1006,4 21 0,0
06.07.2020 19:00:00 16,2 10,9 51 27 68 37 W 1005,7 30 0,0
06.07.2020 18:00:00 17,1 10,2 52 28 71 38 W 1004,8 29 0,0
06.07.2020 17:00:00 16,7 10,5 44 24 73 39 W 1004,4 25 0,0
06.07.2020 16:00:00 17,2 10,8 46 25 62 33 W 1003,8 31 0,0
06.07.2020 15:00:00 17,1 10,0 45 25 63 34 W 1003,7 35 0,0
06.07.2020 14:00:00 17,4 11,4 40 22 59 32 W 1003,1 37 0,0
06.07.2020 13:00:00 16,2 11,1 40 21 67 36 WSW 1002,6 32 0,8
06.07.2020 12:00:00 17,0 10,6 48 26 63 34 WSW 1002,1 32 0,0
06.07.2020 11:00:00 16,1 10,0 53 29 67 36 WSW 1001,8 35 0,0
06.07.2020 10:00:00 15,0 10,0 52 28 71 38 W 1001,8 38 1,0
06.07.2020 09:00:00 15,6 10,6 47 25 58 31 WSW 1001,7 31 0,0
06.07.2020 08:00:00 15,6 10,8 44 24 61 33 WSW 1001,8 24 0,0
06.07.2020 07:00:00 14,7 10,7 46 25 66 36 WSW 1001,6 33 0,0
06.07.2020 06:00:00 15,2 10,2 49 27 63 34 SW 1001,3 40 0,0
06.07.2020 05:00:00 15,4 11,2 40 21 54 29 SW 1001,7 34 0,0
06.07.2020 04:00:00 15,4 10,4 43 23 53 29 WSW 1002,2 32 0,0
06.07.2020 03:00:00 15,4 9,7 44 24 54 29 WSW 1002,7 22 0,0
06.07.2020 02:00:00 15,3 9,6 38 21 52 28 WSW 1003,1 9 0,0
06.07.2020 01:00:00 15,6 10,4 44 24 56 30 WSW 1003,5 9 0,0
06.07.2020 00:00:00 15,9 10,4 42 23 55 30 WSW 1003,6 9 0,0
05.07.2020 23:00:00 16,2 10,3 39 21 58 31 W 1003,5 8 0,0
05.07.2020 22:00:00 16,8 10,6 44 24 64 35 W 1003,4 11 0,0
05.07.2020 21:00:00 17,6 11,2 48 26 66 36 WSW 1002,8 6 0,0
05.07.2020 20:00:00 18,3 12,1 51 28 69 38 WSW 1002,7 8 0,0
05.07.2020 19:00:00 18,9 11,7 50 27 76 41 WSW 1002,5 6 0,0
05.07.2020 18:00:00 19,5 13,4 48 26 63 34 WSW 1002,2 12 0,0
05.07.2020 17:00:00 20,0 14,4 45 25 65 35 WSW 1002,2 18 0,0
05.07.2020 16:00:00 19,5 14,7 48 26 69 38 WSW 1001,9 22 1,4
05.07.2020 15:00:00 17,2 16,2 51 28 73 39 WSW 1001,9 2,0 2,0
05.07.2020 14:00:00 18,7 16,5 44 24 61 33 SW 1001,4 42 0,0
05.07.2020 13:00:00 18,0 16,9 41 22 60 33 SW 1001,5 12 0,0
05.07.2020 12:00:00 19,0 16,0 44 24 56 30 SW 1001,8 43 0,0
05.07.2020 11:00:00 18,7 16,1 36 20 53 29 SW 1001,8 33 0,0
05.07.2020 10:00:00 18,0 16,7 36 19 48 26 SSW 1002,2 22 0,0
05.07.2020 09:00:00 18,5 17,2 35 19 42 23 SSW 1002,4 37 0,0
05.07.2020 08:00:00 17,9 16,4 31 17 42 23 SW 1003,1 39 -
05.07.2020 07:00:00 17,5 16,4 30 16 39 21 SW 1003,7 36 0,0
05.07.2020 06:00:00 17,3 16,2 30 16 37 20 SW 1004,1 27 0,0
05.07.2020 05:00:00 17,1 16,0 27 15 38 21 SW 1004,7 21 0,0
05.07.2020 04:00:00 17,0 16,2 29 16 37 20 SW 1005,0 20 0,0
05.07.2020 03:00:00 17,1 16,1 31 17 43 23 SW 1005,7 17 0,0
05.07.2020 02:00:00 17,5 16,0 30 16 49 26 WSW 1006,3 45 0,0
05.07.2020 01:00:00 17,4 15,9 36 19 48 26 WSW 1006,4 39 0,0
05.07.2020 00:00:00 17,3 16,0 36 20 50 27 WSW 1006,5 15 0,0
04.07.2020 23:00:00 17,3 16,0 42 23 55 30 WSW 1006,7 42 0,0
04.07.2020 22:00:00 17,1 16,1 38 20 49 26 WSW 1006,7 39 0,0
04.07.2020 21:00:00 16,8 16,2 39 21 51 28 SW 1006,6 4,4 0,6
04.07.2020 20:00:00 16,6 15,8 39 21 53 29 SW 1006,8 9 0,9
04.07.2020 19:00:00 16,4 15,6 41 22 56 30 SW 1007,2 8 1,2
04.07.2020 18:00:00 16,1 15,3 39 21 58 31 SW 1007,6 4,2 1,2
04.07.2020 17:00:00 15,8 15,0 41 22 53 29 SW 1007,8 4,6 2,1
04.07.2020 16:00:00 16,1 15,0 44 24 55 30 SW 1008,2 7 0,9
04.07.2020 15:00:00 15,9 14,8 40 22 56 31 SW 1008,4 5 0,3
04.07.2020 14:00:00 16,8 14,1 39 21 52 28 SW 1008,6 33 0,0
04.07.2020 13:00:00 16,7 13,8 39 21 54 29 SW 1008,7 40 0,0
04.07.2020 12:00:00 17,1 14,2 41 22 54 29 SW 1008,8 37 0,0
04.07.2020 11:00:00 16,7 13,8 43 23 58 31 SW 1008,7 28 0,0
04.07.2020 10:00:00 16,4 13,9 45 24 59 32 SW 1008,8 28 0,0
04.07.2020 09:00:00 16,1 13,9 44 24 60 33 SW 1008,9 27 0,0
04.07.2020 08:00:00 15,8 13,8 44 24 56 30 SW 1008,8 22 1,3
04.07.2020 07:00:00 15,4 13,9 45 24 56 31 SW 1008,9 6 1,7
04.07.2020 06:00:00 15,6 14,0 47 25 61 33 SW 1009,1 7 2,3
04.07.2020 05:00:00 16,4 13,7 41 22 51 28 SW 1009,2 15 0,1
04.07.2020 04:00:00 16,2 13,5 36 20 51 27 SW 1009,6 35 0,0
04.07.2020 03:00:00 16,0 13,3 42 23 58 31 WSW 1010,3 33 0,0
04.07.2020 02:00:00 15,7 13,2 40 21 57 31 WSW 1011,0 30 0,3
04.07.2020 01:00:00 15,3 13,8 39 21 48 26 WSW 1011,5 10 0,4
04.07.2020 00:00:00 15,1 13,5 24 13 41 22 WSW 1012,0 43 0,7
03.07.2020 23:00:00 15,1 12,4 35 19 43 23 WSW 1012,5 14 1,0
03.07.2020 22:00:00 15,5 13,0 24 13 41 22 SW 1012,5 28 0,1
03.07.2020 21:00:00 16,2 14,0 30 16 47 26 WSW 1012,7 7 0,8
03.07.2020 20:00:00 15,5 13,2 4 2 8 4 SSE 1012,7 36 0,1
03.07.2020 19:00:00 15,6 12,7 5 3 37 20 W 1013,0 50 0,0
03.07.2020 18:00:00 15,9 13,4 26 14 42 23 WSW 1013,0 43 0,3
03.07.2020 17:00:00 17,3 10,9 21 12 41 22 WSW 1013,1 50 0,0
03.07.2020 16:00:00 17,5 10,1 31 17 37 20 WSW 1013,0 50 0,0
03.07.2020 15:00:00 18,2 7,9 11 6 24 13 WSW 1013,2 43 0,0
03.07.2020 14:00:00 18,7 9,2 17 9 24 13 SW 1013,3 40 0,0
03.07.2020 13:00:00 17,3 8,2 10 5 16 9 W 1013,7 38 0,0
03.07.2020 12:00:00 17,6 9,0 11 6 21 12 W 1013,3 35 0,0
03.07.2020 11:00:00 16,6 7,8 14 8 21 11 WNW 1013,2 17 0,0
03.07.2020 10:00:00 16,5 8,5 15 8 28 15 WNW 1012,9 13 0,0
03.07.2020 09:00:00 15,6 9,0 14 8 21 11 NW 1012,6 10 0,0
03.07.2020 08:00:00 15,3 8,5 11 6 23 12 NW 1012,2 33 0,0
03.07.2020 07:00:00 14,9 8,6 17 9 27 15 NNW 1011,9 49 0,0
03.07.2020 06:00:00 15,0 9,5 22 12 27 14 NNW 1011,5 50 0,1
03.07.2020 05:00:00 14,9 9,5 22 12 28 15 NW 1011,2 17 0,2
03.07.2020 04:00:00 16,2 9,2 23 12 27 15 NNW 1010,6 29 0,0
03.07.2020 03:00:00 16,6 8,3 13 7 22 12 NW 1010,3 31 0,0
03.07.2020 02:00:00 17,0 9,3 15 8 19 10 NW 1010,2 50 0,0
03.07.2020 01:00:00 16,9 8,4 15 8 22 12 NNW 1010,1 50 0,0
03.07.2020 00:00:00 17,2 8,9 18 10 22 12 NNW 1009,8 50 0,0
02.07.2020 23:00:00 17,5 8,9 19 10 27 14 NNW 1009,7 50 0,0
02.07.2020 22:00:00 17,9 9,3 23 12 28 15 NNW 1009,3 50 0,0
02.07.2020 21:00:00 18,7 10,5 11 6 21 11 WNW 1009,0 46 0,0
02.07.2020 20:00:00 18,7 12,3 14 8 23 12 W 1008,6 50 0,0
02.07.2020 19:00:00 18,8 11,0 16 9 24 13 WNW 1008,4 50 0,0
02.07.2020 18:00:00 19,8 11,6 19 11 25 13 NW 1008,2 50 0,0
02.07.2020 17:00:00 19,5 12,7 14 8 22 12 WNW 1008,1 47 0,0
02.07.2020 16:00:00 21,4 12,0 10 5 23 13 W 1007,8 45 0,0
02.07.2020 15:00:00 20,5 11,1 18 10 24 13 W 1007,8 43 0,0
02.07.2020 14:00:00 20,0 12,2 16 9 26 14 W 1007,8 50 0,0
02.07.2020 13:00:00 18,8 11,6 22 12 30 16 W 1007,4 50 0,0
02.07.2020 12:00:00 19,7 13,2 23 12 31 17 W 1007,0 46 0,0
02.07.2020 11:00:00 19,0 13,4 24 13 - - W 1006,3 38 0,0
02.07.2020 10:00:00 17,6 13,1 22 12 33 18 W 1006,0 44 0,0
02.07.2020 09:00:00 16,9 13,4 25 14 36 19 W 1005,4 45 0,0
02.07.2020 08:00:00 16,5 12,8 27 15 38 21 WNW 1004,8 49 0,0
02.07.2020 07:00:00 16,5 13,2 32 17 41 22 WNW 1004,2 40 0,0
02.07.2020 06:00:00 16,3 14,0 34 19 44 24 W 1003,4 35 0,0
02.07.2020 05:00:00 16,2 14,0 36 20 45 24 W 1003,0 45 0,0
02.07.2020 04:00:00 16,5 14,0 40 22 54 29 W 1002,5 47 0,0
02.07.2020 03:00:00 16,9 15,1 42 23 51 28 W 1002,1 29 0,0
02.07.2020 02:00:00 17,4 14,7 43 23 53 29 WSW 1001,7 48 0,0
02.07.2020 01:00:00 17,6 15,9 41 22 - - WSW 1001,7 26 0,0
02.07.2020 00:00:00 16,4 15,8 21 12 50 27 S 1002,0 8 9,5
01.07.2020 23:00:00 15,8 14,8 22 12 34 19 SSE 1002,2 9 1,1
01.07.2020 22:00:00 16,6 14,6 16 8 22 12 S 1002,8 7 0,5
01.07.2020 21:00:00 17,9 13,6 19 11 27 14 SSW 1002,7 50 0,0

tt = temperature
td = dewpoint
ff = wind speed
fx = gusts
dd = wind direction
ppp = reduced air pressure
vv = visibility
rr = precipitation

Next stations